Location: Stilling
(56.0622°N, 9.9882°E)
Time: 12:55:06
(UTC+00:00)

CARTOSAT-1 - Pass Details

Date: 13 July 2020
Orbit: 617 x 618 km, 97.8° (Epoch: 07 August)

Event Time Altitude Azimuth Distance (km) Brightness Sun altitude
Exits shadow 21:09:42 - 182° (S) 2,485 6.2 -7.1°
Reaches altitude 10° 21:10:58 10° 186° (S) 1,982 5.7 -7.2°
Maximum altitude 21:15:08 47° 261° (W) 829 4.4 -7.5°
Drops below altitude 10° 21:19:20 10° 336° (NNW) 1,997 7.9 -7.8°
Sets 21:21:36 0° 342° (NNW) 2,908 9.1 -7.9°
